Location: Unspecified
(0.0000°N, 0.0000°E)
Time: 16:16:52
(UTC+00:00)

Altair - Pass Details

Date: 21 November 2019
Orbit: 1502 x 1682 km, 47.2° (Epoch: 12 December)

Event Time Altitude Azimuth Distance (km) Brightness Sun altitude
Rises 00:54:18 0° 248° (WSW) 4,754 - -64.0°
Reaches altitude 10° 00:58:10 10° 260° (W) 3,739 - -63.4°
Maximum altitude 01:05:24 25° 311° (NW) 2,700 - -62.2°
Drops below altitude 10° 01:12:32 10° 3° (N) 3,652 - -60.9°
Sets 01:16:18 0° 16° (NNE) 4,623 - -60.3°
